Total_Precipitation_Accumulation
0.03 0.08 0.18 0.37 0.73 1.15 1.10 0.69 0.45 0.24 0.28 0.38 0.50 0.58 0.55 0.56 0.71 1.06 0.67 0.29 0.14 0.11 0.15 0.25 0.40 0.31 0.27 0.27 0.30 0.31 0.32 0.31 0.31 0.29 0.31 0.33 0.36 0.42 0.50 0.55 0.61 0.66 0.68 0.67 0.65 0.67 0.70 0.72 0.74
0.05 0.12 0.21 0.48 0.93 1.04 0.87 0.53 0.29 0.21 0.25 0.37 0.44 0.40 0.38 0.34 0.29 0.24 0.34 0.33 0.20 0.11 0.11 0.13 0.25 0.28 0.23 0.23 0.27 0.30 0.29 0.27 0.29 0.29 0.28 0.32 0.40 0.48 0.55 0.64 0.63 0.62 0.60 0.56 0.55 0.62 0.57 0.61 0.68
0.09 0.15 0.26 0.58 0.77 0.64 0.50 0.32 0.25 0.25 0.33 0.43 0.42 0.36 0.36 0.41 0.25 0.17 0.25 0.26 0.18 0.10 0.09 0.14 0.20 0.22 0.21 0.22 0.28 0.29 0.27 0.28 0.29 0.29 0.33 0.38 0.46 0.52 0.53 0.57 0.59 0.57 0.56 0.57 0.57 0.59 0.52 0.53 0.63
0.09 0.16 0.33 0.47 0.44 0.36 0.28 0.25 0.23 0.23 0.37 0.54 0.58 0.42 0.30 0.30 0.22 0.17 0.19 0.17 0.12 0.10 0.10 0.15 0.23 0.22 0.22 0.25 0.29 0.29 0.27 0.29 0.30 0.32 0.40 0.47 0.53 0.54 0.49 0.50 0.51 0.51 0.51 0.51 0.54 0.53 0.51 0.55 0.63
0.08 0.19 0.42 0.38 0.29 0.26 0.25 0.21 0.21 0.23 0.31 0.55 0.65 0.60 0.47 0.41 0.29 0.22 0.24 0.16 0.10 0.11 0.14 0.17 0.25 0.24 0.24 0.26 0.29 0.30 0.29 0.31 0.34 0.36 0.42 0.44 0.49 0.49 0.44 0.44 0.46 0.47 0.49 0.47 0.46 0.47 0.56 0.68 0.78
0.11 0.19 0.27 0.28 0.19 0.17 0.17 0.17 0.24 0.28 0.44 0.54 0.56 0.63 0.65 0.56 0.42 0.27 0.29 0.20 0.14 0.11 0.14 0.19 0.25 0.26 0.26 0.27 0.30 0.30 0.30 0.33 0.35 0.37 0.36 0.37 0.41 0.46 0.43 0.42 0.44 0.42 0.44 0.47 0.48 0.48 0.57 0.66 0.79
0.09 0.17 0.19 0.21 0.17 0.13 0.12 0.15 0.28 0.34 0.61 0.74 0.78 0.73 0.78 0.75 0.49 0.35 0.34 0.27 0.25 0.20 0.19 0.24 0.25 0.26 0.30 0.33 0.32 0.31 0.32 0.33 0.35 0.39 0.39 0.39 0.36 0.41 0.44 0.46 0.47 0.45 0.48 0.49 0.51 0.54 0.58 0.60 0.71
0.04 0.07 0.12 0.13 0.12 0.10 0.11 0.13 0.23 0.32 0.52 0.59 0.72 0.84 0.99 0.82 0.55 0.47 0.47 0.46 0.46 0.46 0.43 0.39 0.36 0.35 0.35 0.35 0.37 0.38 0.37 0.37 0.39 0.40 0.43 0.49 0.49 0.47 0.50 0.49 0.51 0.51 0.52 0.56 0.62 0.66 0.70 0.76 0.80
0.02 0.04 0.07 0.08 0.07 0.06 0.08 0.13 0.19 0.34 0.44 0.46 0.60 0.73 0.88 0.66 0.59 0.66 0.77 0.80 0.77 0.75 0.76 0.64 0.60 0.46 0.46 0.43 0.40 0.51 0.49 0.51 0.56 0.58 0.60 0.79 1.06 0.96 0.93 0.72 0.77 0.76 0.74 0.78 0.86 0.91 0.98 0.96 0.98
0.02 0.03 0.04 0.03 0.03 0.04 0.07 0.13 0.20 0.33 0.70 0.89 1.01 0.92 0.76 0.74 0.77 0.83 0.92 0.95 0.99 0.99 0.84 0.80 0.80 0.65 0.65 0.65 0.72 0.99 0.91 0.93 1.02 1.09 1.05 1.34 1.47 1.41 1.02 1.00 1.24 1.29 1.33 1.30 1.36 1.52 1.49 1.23 1.05
0.01 0.02 0.01 0.01 0.01 0.02 0.06 0.11 0.13 0.29 0.82 1.36 1.47 1.14 0.81 0.90 1.03 1.12 1.17 1.24 1.14 1.15 1.01 1.10 1.07 0.95 0.95 1.16 1.00 1.13 1.35 1.51 1.50 1.48 1.65 1.80 1.51 1.30 1.17 1.31 1.54 1.59 1.65 1.66 1.81 2.04 1.86 1.81 1.78
0.00 0.01 0.01 0.01 0.01 0.02 0.05 0.12 0.17 0.31 0.76 1.19 1.21 0.97 0.80 1.00 1.15 1.42 1.55 1.69 1.73 1.68 1.62 1.58 1.59 1.56 1.52 1.37 1.37 1.30 1.34 1.44 1.60 1.67 1.65 1.83 1.87 1.81 1.69 1.69 1.68 1.69 1.81 2.09 2.13 2.28 2.39 2.40 2.14
0.01 0.01 0.01 0.01 0.02 0.03 0.06 0.11 0.22 0.43 0.53 0.60 0.70 0.73 0.83 1.12 1.41 1.78 1.98 2.16 2.23 2.44 2.52 2.46 2.32 2.11 2.15 2.11 1.92 1.59 1.62 1.57 1.56 1.82 1.86 1.93 2.06 2.14 2.10 1.98 1.98 1.71 1.77 2.10 2.41 2.33 2.47 2.63 2.46
0.01 0.01 0.01 0.01 0.02 0.03 0.05 0.12 0.26 0.51 0.52 0.53 0.63 0.68 0.80 1.22 1.74 2.22 2.30 2.41 2.64 3.22 3.62 3.38 3.15 2.83 2.72 2.68 2.52 2.37 2.06 1.97 1.76 1.87 1.98 2.15 2.31 2.38 2.34 2.15 2.09 1.79 1.76 1.99 2.27 2.30 2.50 2.55 2.57
0.01 0.02 0.04 0.04 0.04 0.09 0.11 0.21 0.41 0.63 0.58 0.59 0.71 0.75 0.82 1.19 1.65 2.39 2.75 2.97 3.21 3.87 4.38 4.10 3.95 3.90 3.66 3.50 3.10 2.63 2.32 2.12 2.21 2.29 2.36 2.46 2.52 2.59 2.54 2.38 2.12 2.00 2.07 2.15 2.16 2.25 2.64 2.50 2.41
0.01 0.03 0.08 0.09 0.07 0.11 0.17 0.48 0.63 0.70 0.64 0.68 0.90 0.84 0.84 1.14 1.64 2.36 2.97 3.45 3.75 4.06 4.44 4.75 4.46 4.79 4.68 4.36 3.87 3.34 3.07 2.92 2.74 2.65 2.68 2.55 2.53 2.57 2.68 2.34 1.99 2.15 2.32 2.37 2.36 2.40 2.60 2.60 2.69
0.02 0.05 0.11 0.13 0.12 0.12 0.20 0.60 0.74 0.59 0.62 0.77 0.95 0.95 0.99 1.23 1.58 2.06 2.70 3.27 3.83 4.37 4.82 5.27 5.48 5.55 5.13 4.75 4.33 4.02 3.77 3.48 3.03 2.53 2.30 2.18 2.05 1.99 2.06 1.79 1.69 1.82 1.93 1.84 1.75 2.06 2.27 2.40 2.54
0.03 0.07 0.14 0.27 0.21 0.14 0.20 0.48 0.66 0.61 0.61 0.80 1.03 0.99 1.05 1.25 1.60 2.00 2.55 3.03 3.69 4.53 5.33 5.71 5.81 5.40 4.98 4.61 4.12 3.90 3.59 3.24 2.86 2.38 2.00 1.79 1.71 1.59 1.68 1.44 1.38 1.56 1.70 1.71 1.81 1.96 1.95 1.91 2.00
0.03 0.05 0.13 0.22 0.14 0.14 0.26 0.48 0.61 0.67 0.74 0.89 1.05 1.04 1.09 1.20 1.55 2.01 2.52 3.03 3.70 4.62 5.52 5.84 5.55 4.95 4.51 4.07 3.56 3.16 2.81 2.56 2.46 2.15 1.80 1.64 1.59 1.59 1.73 1.49 1.59 1.62 1.65 1.64 1.68 1.76 1.66 1.45 1.62
0.05 0.08 0.13 0.18 0.12 0.14 0.24 0.48 0.71 0.83 0.93 0.90 0.95 1.05 1.01 1.20 1.61 2.11 2.69 3.11 3.46 3.99 4.73 5.00 4.62 3.96 3.39 3.08 2.91 2.70 2.59 2.28 2.06 1.95 1.80 1.52 1.48 1.51 1.52 1.54 1.31 1.34 1.45 1.35 1.39 1.64 1.61 1.38 1.48
0.08 0.08 0.12 0.15 0.08 0.14 0.23 0.57 0.90 1.03 0.85 0.69 0.63 0.75 0.77 0.94 1.46 2.17 2.68 2.95 3.24 3.45 3.44 3.54 3.41 2.90 2.54 2.43 2.41 2.36 2.41 2.20 1.93 1.77 1.59 1.38 1.30 1.25 1.27 1.26 1.23 1.32 1.26 1.30 1.37 1.45 1.53 1.43 1.34
0.07 0.06 0.05 0.05 0.07 0.22 0.33 0.84 1.12 1.04 0.88 0.70 0.58 0.60 0.61 0.83 1.30 2.04 2.29 2.36 2.45 2.57 2.38 2.38 2.44 2.26 2.18 2.08 2.08 1.94 1.77 1.70 1.58 1.57 1.48 1.36 1.27 1.20 1.10 1.12 1.10 1.17 1.18 1.36 1.20 1.23 1.38 1.41 1.26
0.05 0.04 0.04 0.07 0.11 0.26 0.45 0.78 1.12 1.01 1.00 0.74 0.55 0.53 0.63 0.72 1.00 1.34 1.39 1.49 1.59 1.68 1.72 1.88 2.11 2.10 2.01 1.95 2.03 2.00 1.72 1.55 1.45 1.46 1.50 1.37 1.24 1.18 1.08 1.09 1.14 1.16 1.14 1.19 1.22 1.36 1.33 1.30 1.25
0.04 0.06 0.11 0.23 0.34 0.67 0.68 0.75 1.15 1.03 0.84 0.57 0.47 0.51 0.47 0.50 0.69 0.88 0.94 0.97 1.04 1.10 1.23 1.43 1.79 1.93 1.84 1.79 1.81 1.77 1.67 1.60 1.46 1.35 1.34 1.31 1.23 1.21 1.22 1.18 1.23 1.20 1.18 1.19 1.19 1.25 1.27 1.29 1.33
0.06 0.09 0.26 0.61 1.00 1.12 0.70 0.74 1.06 0.72 0.49 0.36 0.31 0.34 0.39 0.52 0.61 0.71 0.84 0.86 0.80 0.79 0.90 1.09 1.32 1.43 1.47 1.54 1.62 1.65 1.70 1.63 1.46 1.36 1.26 1.24 1.14 1.13 1.26 1.28 1.28 1.31 1.31 1.24 1.23 1.22 1.17 1.25 1.38
0.07 0.09 0.19 0.37 0.47 0.60 0.60 0.99 1.14 0.61 0.39 0.29 0.23 0.24 0.39 0.48 0.46 0.48 0.56 0.55 0.54 0.63 0.72 0.88 0.99 1.07 1.16 1.24 1.35 1.46 1.48 1.47 1.38 1.39 1.30 1.22 1.12 1.10 1.21 1.30 1.28 1.24 1.19 1.15 1.30 1.19 1.15 1.25 1.32
0.06 0.06 0.08 0.09 0.14 0.36 0.67 0.92 0.85 0.53 0.35 0.26 0.22 0.21 0.33 0.35 0.31 0.29 0.29 0.30 0.37 0.52 0.65 0.72 0.80 0.87 0.96 1.04 1.19 1.29 1.33 1.31 1.34 1.33 1.23 1.16 1.19 1.13 1.18 1.13 1.19 1.21 1.15 1.15 1.25 1.22 1.24 1.29 1.26
0.07 0.07 0.06 0.06 0.15 0.34 0.62 0.92 0.94 0.65 0.44 0.32 0.23 0.21 0.29 0.29 0.25 0.23 0.22 0.21 0.23 0.28 0.44 0.59 0.67 0.78 0.91 0.97 0.99 1.03 1.18 1.16 1.17 1.15 1.08 1.15 1.17 1.14 1.21 1.22 1.12 1.12 1.13 1.19 1.31 1.29 1.27 1.38 1.45
0.06 0.06 0.07 0.07 0.08 0.19 0.46 0.69 0.59 0.46 0.31 0.25 0.23 0.24 0.28 0.29 0.27 0.22 0.21 0.20 0.19 0.23 0.34 0.48 0.56 0.66 0.75 0.78 0.80 0.92 1.02 1.02 0.99 0.99 0.97 1.02 1.04 1.07 1.12 1.14 1.14 1.13 1.19 1.37 1.62 1.58 1.52 1.55 1.61
0.06 0.06 0.08 0.09 0.10 0.13 0.24 0.35 0.29 0.31 0.24 0.23 0.24 0.29 0.37 0.40 0.37 0.28 0.25 0.21 0.26 0.27 0.31 0.41 0.42 0.45 0.50 0.55 0.62 0.75 0.88 0.89 0.88 0.91 1.04 1.09 1.06 1.00 0.91 0.94 1.00 1.00 1.11 1.33 1.65 1.79 1.78 1.79 1.71